N1JFY Weather Reports


time (UTC)temp
C
wind
direction
speed
KPH
gust
KPH
rain 1hr
cm
rain 24hr
cm
rain mn
cm
humidity
%
barometer
mb
20260504211524 8 237 9.7 25.7 0.00 0.08 0.03 72 1003.1
20260504210032 8 246 16.1 27.4 0.00 0.08 0.03 73 1002.8
20260504204532 8 211 6.4 22.5 0.00 0.13 0.03 75 1002.7
20260504203034 8 269 12.9 20.9 0.00 0.13 0.03 73 1002.7
20260504201523 8 360 1.6 20.9 0.00 0.13 0.03 75 1002.6
20260504200022 8 268 11.3 24.1 0.00 0.13 0.03 76 1002.6
20260504194524 8 210 11.3 24.1 0.00 0.23 0.03 74 1002.6
20260504193022 8 267 16.1 27.4 0.03 0.23 0.03 74 1002.6
20260504191524 8 249 17.7 30.6 0.03 0.23 0.03 75 1002.5
20260504190019 8 228 4.8 14.5 0.03 0.23 0.03 79 1002.6
20260504184519 7 220 4.8 17.7 0.03 0.36 0.03 78 1002.8
20260504183020 8 242 12.9 20.9 0.00 0.33 0.00 73 1002.7
20260504181518 8 263 11.3 24.1 0.00 0.33 0.00 75 1002.9
20260504180017 8 207 11.3 27.4 0.00 0.33 0.00 73 1002.8
20260504174517 8 225 11.3 29.0 0.00 0.41 0.00 70 1002.8
20260504173016 10 245 9.7 29.0 0.00 0.41 0.00 64 1002.7
20260504171514 10 215 16.1 33.8 0.00 0.41 0.00 56 1002.4
20260504081502 1 260 14.5 32.2 0.00 1.40 0.00 78 1002.6
20260504044534 3 360 16.1 32.2 0.00 1.40 0.00 81 1001.7
20260504043031 3 360 17.7 32.2 0.00 1.40 0.00 82 1001.7
20260504041527 3 321 19.3 30.6 0.00 1.40 0.00 83 1001.5
20260504040024 3 325 20.9 32.2 0.00 1.40 0.00 84 1001.4
20260504034523 3 360 19.3 30.6 0.00 1.40 1.40 87 1001.3
20260504033021 3 286 16.1 30.6 0.00 1.40 1.40 91 1001.1
20260504031520 3 360 14.5 27.4 0.00 1.40 1.40 92 1001.2
20260504030019 3 360 12.9 20.9 0.00 1.40 1.40 92 1001.1
20260504024517 3 360 12.9 20.9 0.00 1.42 1.40 92 1001.0
20260504023017 3 329 12.9 22.5 0.00 1.42 1.40 92 1000.8
20260504021516 3 360 14.5 24.1 0.00 1.42 1.40 92 1000.9
20260504020017 3 360 14.5 22.5 0.00 1.42 1.40 91 1000.8
20260504014524 3 360 12.9 27.4 0.00 1.42 1.40 91 1000.8
20260504013014 3 360 16.1 27.4 0.00 1.42 1.40 92 1000.8
20260504011513 3 360 14.5 22.5 0.00 1.42 1.40 92 1000.8
20260504010012 3 321 12.9 19.3 0.00 1.42 1.40 91 1000.7
20260504004512 3 327 12.9 20.9 0.00 1.42 1.40 92 1000.7
20260504003011 3 323 11.3 17.7 0.00 1.42 1.40 92 1000.5
20260504001511 3 323 16.1 24.1 0.03 1.42 1.40 92 1000.5
20260504000027 3 355 12.9 25.7 0.03 1.42 1.40 92 1000.5
20260503234509 3 332 17.7 30.6 0.03 1.45 1.40 92 1000.3
20260503233009 3 321 12.9 22.5 0.03 1.45 1.40 92 1000.2
20260503231509 3 336 12.9 22.5 0.00 1.42 1.37 92 1000.3
20260503230008 3 315 16.1 24.1 0.00 1.42 1.37 92 1000.2
20260503224507 4 360 12.9 22.5 0.00 1.50 1.37 92 1000.3
20260503223006 4 346 12.9 25.7 0.00 1.50 1.37 91 1000.2
20260503221506 4 329 17.7 29.0 0.00 1.50 1.37 91 1000.2
20260503220005 4 328 14.5 24.1 0.03 1.50 1.37 91 1000.2
20260503214511 4 333 14.5 22.5 0.03 1.63 1.37 92 1000.3
20260503213100 4 336 14.5 22.5 0.03 1.63 1.37 92 1000.5